Regional Weather Roundup
Issued by NWS Nashville, TN

Current Version | Previous Version | Text Only | Print | Product List | Glossary Off
Versions: 1 2 3 4 5 6 7 8 9 10 11 12 13 14 15 16 17 18 19 20 21 22 23 24 25 26 27 28 29 30 31 32 33 34 35 36 37 38 39 40 41 42 43 44 45 46 47 48 49 50

000
ASUS44 KOHX 260315
RWROHX
MIDDLE TENNESSEE HOURLY WEATHER ROUNDUP
NATIONAL WEATHER SERVICE NASHVILLE TN
1000 PM CDT SAT OCT 25 2014

NOTE: "FAIR" INDICATES FEW OR NO CLOUDS BELOW 12,000 FEET WITH
NO SIGNIFICANT WEATHER AND/OR OBSTRUCTIONS TO VISIBILITY.

* THESE REPORTS ARE NOT UNDER NWS QUALITY CONTROL AND MAY NOT
  REPORT WEATHER SUCH AS PRECIPITATION AND FOG.


TNZ005>011-023>034-057-059-062>066-078-080-260400
...NORTHERN MIDDLE TENNESSEE...

CITY           SKY/WX    TMP DP  RH WIND       PRES   REMARKS
CLARKSVILLE    FOG       60  59  96 CALM      30.02S VSB 1/4
CROSSVILLE     CLEAR     55  52  89 W3        30.07R FOG
NASHVILLE      CLEAR     63  61  93 CALM      30.03S
SMYRNA         FOG       57  57 100 CALM      30.04S VSB 1/4
SPARTA         MOCLDY    48  48 100 CALM      30.04S VSB 1/4
$$
TNZ056-058-060-061-075>077-079-093>097-260400
...SOUTHERN MIDDLE TENNESSEE...

CITY           SKY/WX    TMP DP  RH WIND       PRES   REMARKS
COLUMBIA       CLEAR    N/A N/A N/A CALM      30.03S
FAYETTEVILLE   CLEAR     61  57  88 SW7G17    30.05S
MCMINNVILLE    CLOUDY    55  55 100 CALM      30.05R VSB 0
SHELBYVILLE      N/A     57  57 100 CALM      30.05S VSB 1/2
TULLAHOMA      CLEAR     55  54  94 CALM      30.06S
WINCHESTER     CLEAR     55  55 100 CALM      30.06R
$$


...KEY TO REMARKS...
VSB - VISIBILITY IN MILES
WCI - WIND CHILL INDEX
HX  - HEAT INDEX




USA.gov is the U.S. government's official web portal to all federal, state and local government web resources and services.